sat.trackr.live / text

‹ back to catalog

STARLINK-36185

NORAD 67204 · 2025-304N

PAYLOAD ACTIVE UNKNOWN

§ Identity

Operator
Country
US
Launch date
2025-12-17
Launch site
AFWTR
Launch vehicle
Mass (kg)
RCS (m²)

Purposes: comms

External: N2YO · Heavens-Above · Gunter

§ Orbital elements

Epoch: 2026-05-24T23:27:35.739072Z

Period
96.11 min
Inclination
70.0018°
Eccentricity
0.0002772
Mean motion
14.98327305 rev/d
Perigee alt
570.1 km
Apogee alt
574.0 km
Semi-major
6,950.2 km
B*
3.3551e-4
RAAN
342.0343°
Arg perigee
265.8449°
Mean anomaly
94.2394°
Rev number
2,531

§ Raw data

STARLINK-361851 67204U 25304N   26144.97749698  .00003912  00000+0  33551-3 0  99932 67204  70.0018 342.0343 0002772 265.8449  94.2394 14.98327305 25316

JSON: /api/v1/satellites/67204 · /tle

For live sub-satellite position, see the globe view (requires WebGL).

§ Visibility from observer

Set your observer location to see the next 7 days of passes ≥ 10°. The values pass through the URL so the page stays shareable.

No JS? Fill the form by hand. The geolocation button needs JavaScript.